| time (UTC) | temp C | wind direction | speed KPH | gust KPH | rain 1hr cm | rain 24hr cm | rain mn cm | humidity % | barometer mb |
| 20260508044032 | 6 | 0 | 0.0 | 0.0 | 0.00 | 0.76 | 0.00 | 95 | 1014.0 |
| 20260508043534 | 6 | 0 | 0.0 | 0.0 | 0.00 | 0.76 | 0.00 | 96 | 1013.9 |
| 20260508043041 | 6 | 0 | 0.0 | 0.0 | 0.00 | 0.76 | 0.00 | 96 | 1013.9 |
| 20260508042534 | 6 | 0 | 0.0 | 0.0 | 0.00 | 0.76 | 0.00 | 96 | 1013.8 |
| 20260508042033 | 6 | 0 | 0.0 | 0.0 | 0.00 | 0.76 | 0.00 | 96 | 1013.7 |
| 20260508041543 | 6 | 0 | 0.0 | 0.0 | 0.00 | 0.76 | 0.00 | 96 | 1013.8 |
| 20260508041035 | 6 | 0 | 0.0 | 0.0 | 0.00 | 0.76 | 0.00 | 96 | 1013.7 |
| 20260508040533 | 7 | 0 | 0.0 | 0.0 | 0.00 | 0.76 | 0.00 | 95 | 1013.6 |
| 20260508040040 | 7 | 0 | 0.0 | 0.0 | 0.00 | 0.76 | 0.00 | 95 | 1013.6 |
| 20260508035533 | 7 | 0 | 0.0 | 0.0 | 0.00 | 0.79 | 0.76 | 96 | 1013.6 |
| 20260508035034 | 7 | 0 | 0.0 | 0.0 | 0.00 | 0.79 | 0.76 | 96 | 1013.6 |
| 20260508034544 | 7 | 0 | 0.0 | 0.0 | 0.00 | 0.79 | 0.76 | 96 | 1013.6 |
| 20260508034034 | 7 | 0 | 0.0 | 0.0 | 0.00 | 0.79 | 0.76 | 96 | 1013.6 |
| 20260508033532 | 7 | 0 | 0.0 | 0.0 | 0.00 | 0.79 | 0.76 | 96 | 1013.5 |
| 20260508033049 | 7 | 0 | 0.0 | 0.0 | 0.00 | 0.79 | 0.76 | 96 | 1013.5 |
| 20260508032534 | 7 | 0 | 0.0 | 0.0 | 0.00 | 0.79 | 0.76 | 96 | 1013.5 |
| 20260508032034 | 7 | 0 | 0.0 | 0.0 | 0.00 | 0.79 | 0.76 | 96 | 1013.4 |
| 20260508031541 | 7 | 0 | 0.0 | 0.0 | 0.00 | 0.79 | 0.76 | 96 | 1013.5 |
| 20260508031033 | 7 | 0 | 0.0 | 0.0 | 0.00 | 0.79 | 0.76 | 96 | 1013.4 |
| 20260508030535 | 8 | 0 | 0.0 | 0.0 | 0.00 | 0.79 | 0.76 | 96 | 1013.3 |
| 20260508030045 | 8 | 0 | 0.0 | 0.0 | 0.00 | 0.79 | 0.76 | 96 | 1013.4 |
| 20260508025537 | 8 | 0 | 0.0 | 0.0 | 0.00 | 0.84 | 0.76 | 96 | 1013.2 |
| 20260508025033 | 8 | 0 | 0.0 | 0.0 | 0.00 | 0.84 | 0.76 | 96 | 1013.2 |
| 20260508024550 | 8 | 0 | 0.0 | 0.0 | 0.00 | 0.84 | 0.76 | 96 | 1013.2 |
| 20260508024033 | 8 | 0 | 0.0 | 0.0 | 0.00 | 0.84 | 0.76 | 96 | 1013.1 |
| 20260508023533 | 8 | 0 | 0.0 | 0.0 | 0.00 | 0.84 | 0.76 | 96 | 1013.1 |
| 20260508023043 | 8 | 0 | 0.0 | 0.0 | 0.00 | 0.84 | 0.76 | 96 | 1013.0 |
| 20260508022533 | 9 | 0 | 0.0 | 0.0 | 0.00 | 0.84 | 0.76 | 96 | 1012.9 |
| 20260508022033 | 9 | 0 | 0.0 | 0.0 | 0.00 | 0.84 | 0.76 | 96 | 1012.8 |
| 20260508021549 | 9 | 0 | 0.0 | 0.0 | 0.00 | 0.84 | 0.76 | 96 | 1012.8 |
| 20260508021034 | 9 | 0 | 0.0 | 0.0 | 0.00 | 0.84 | 0.76 | 96 | 1012.7 |
| 20260508020532 | 9 | 0 | 0.0 | 0.0 | 0.00 | 0.84 | 0.76 | 96 | 1012.5 |
| 20260508020040 | 10 | 0 | 0.0 | 0.0 | 0.00 | 0.84 | 0.76 | 96 | 1012.5 |
| 20260508015532 | 10 | 0 | 0.0 | 0.0 | 0.00 | 0.84 | 0.76 | 96 | 1012.4 |
| 20260508015033 | 10 | 0 | 0.0 | 0.0 | 0.00 | 0.84 | 0.76 | 96 | 1012.2 |
| 20260508014540 | 10 | 0 | 0.0 | 0.0 | 0.00 | 0.84 | 0.76 | 96 | 1012.3 |
| 20260508014034 | 10 | 0 | 0.0 | 0.0 | 0.00 | 0.84 | 0.76 | 96 | 1012.2 |
| 20260508013535 | 10 | 0 | 0.0 | 0.0 | 0.00 | 0.84 | 0.76 | 96 | 1012.2 |
| 20260508013039 | 10 | 0 | 0.0 | 0.0 | 0.00 | 0.84 | 0.76 | 96 | 1012.1 |
| 20260508012533 | 10 | 0 | 0.0 | 0.0 | 0.00 | 0.84 | 0.76 | 96 | 1012.0 |
| 20260508012033 | 10 | 0 | 0.0 | 0.0 | 0.00 | 0.84 | 0.76 | 96 | 1011.9 |
| 20260508011549 | 10 | 0 | 0.0 | 1.6 | 0.00 | 0.84 | 0.76 | 96 | 1011.8 |
| 20260508011036 | 10 | 0 | 0.0 | 1.6 | 0.00 | 0.84 | 0.76 | 96 | 1011.7 |
| 20260508010537 | 10 | 0 | 0.0 | 0.0 | 0.00 | 0.84 | 0.76 | 96 | 1011.6 |
| 20260508010057 | 10 | 0 | 0.0 | 0.0 | 0.00 | 0.84 | 0.76 | 96 | 1011.7 |
| 20260508005539 | 11 | 0 | 0.0 | 0.0 | 0.00 | 0.84 | 0.76 | 96 | 1011.6 |
| 20260508005034 | 11 | 0 | 0.0 | 0.0 | 0.00 | 0.84 | 0.76 | 95 | 1011.6 |
| 20260508004547 | 11 | 0 | 0.0 | 0.0 | 0.00 | 0.84 | 0.76 | 95 | 1011.6 |
| 20260508004035 | 11 | 0 | 0.0 | 0.0 | 0.00 | 0.84 | 0.76 | 95 | 1011.7 |
| 20260508003533 | 11 | 0 | 0.0 | 0.0 | 0.00 | 0.84 | 0.76 | 95 | 1011.6 |
| 20260508003040 | 11 | 0 | 0.0 | 0.0 | 0.00 | 0.84 | 0.76 | 95 | 1011.6 |
| 20260508002533 | 11 | 0 | 0.0 | 0.0 | 0.00 | 0.84 | 0.76 | 95 | 1011.5 |
| 20260508002033 | 11 | 0 | 0.0 | 0.0 | 0.00 | 0.84 | 0.76 | 94 | 1011.6 |
| 20260508001551 | 12 | 0 | 0.0 | 0.0 | 0.00 | 0.84 | 0.76 | 95 | 1011.7 |
| 20260508001033 | 12 | 0 | 0.0 | 0.0 | 0.00 | 0.84 | 0.76 | 94 | 1011.5 |
| 20260508000532 | 12 | 0 | 0.0 | 0.0 | 0.00 | 0.84 | 0.76 | 94 | 1011.5 |
| 20260508000048 | 12 | 0 | 0.0 | 0.0 | 0.00 | 0.84 | 0.76 | 93 | 1011.4 |
| 20260507235533 | 12 | 0 | 0.0 | 0.0 | 0.00 | 0.84 | 0.76 | 93 | 1011.3 |
| 20260507235034 | 12 | 0 | 0.0 | 0.0 | 0.00 | 0.84 | 0.76 | 93 | 1011.2 |
| 20260507234548 | 12 | 0 | 0.0 | 0.0 | 0.00 | 0.84 | 0.76 | 92 | 1011.2 |
| 20260507234033 | 12 | 0 | 0.0 | 0.0 | 0.00 | 0.84 | 0.76 | 92 | 1011.1 |
| 20260507233534 | 12 | 0 | 0.0 | 0.0 | 0.00 | 0.84 | 0.76 | 92 | 1010.9 |
| 20260507233051 | 12 | 0 | 0.0 | 0.0 | 0.00 | 0.84 | 0.76 | 91 | 1010.9 |
| 20260507232534 | 13 | 0 | 0.0 | 0.0 | 0.00 | 0.84 | 0.76 | 91 | 1010.9 |
| 20260507232033 | 13 | 0 | 0.0 | 4.8 | 0.00 | 0.84 | 0.76 | 91 | 1011.0 |
| 20260507231551 | 13 | 0 | 0.0 | 4.8 | 0.00 | 0.84 | 0.76 | 90 | 1010.9 |
| 20260507231033 | 13 | 0 | 0.0 | 3.2 | 0.00 | 0.84 | 0.76 | 90 | 1010.8 |
| 20260507230533 | 13 | 31 | 0.0 | 0.0 | 0.00 | 0.84 | 0.76 | 90 | 1010.7 |
| 20260507230057 | 13 | 0 | 0.0 | 0.0 | 0.00 | 0.84 | 0.76 | 91 | 1010.8 |
| 20260507225534 | 13 | 0 | 0.0 | 0.0 | 0.00 | 0.84 | 0.76 | 93 | 1010.8 |
| 20260507225033 | 13 | 0 | 0.0 | 0.0 | 0.00 | 0.84 | 0.76 | 92 | 1010.7 |
| 20260507224545 | 13 | 0 | 0.0 | 0.0 | 0.00 | 0.84 | 0.76 | 92 | 1010.8 |
| 20260507224033 | 13 | 0 | 0.0 | 0.0 | 0.00 | 0.84 | 0.76 | 93 | 1010.7 |
| 20260507223537 | 13 | 0 | 0.0 | 0.0 | 0.00 | 0.84 | 0.76 | 92 | 1010.7 |
| 20260507223131 | 13 | 0 | 0.0 | 1.6 | 0.00 | 0.84 | 0.76 | 92 | 1010.7 |
| 20260507222533 | 13 | 0 | 0.0 | 1.6 | 0.00 | 0.84 | 0.76 | 91 | 1010.7 |
| 20260507222033 | 13 | 0 | 0.0 | 4.8 | 0.00 | 0.84 | 0.76 | 90 | 1010.5 |
| 20260507221541 | 13 | 0 | 0.0 | 4.8 | 0.00 | 0.84 | 0.76 | 91 | 1010.5 |
| 20260507221034 | 13 | 345 | 0.0 | 4.8 | 0.00 | 0.84 | 0.76 | 90 | 1010.5 |
| 20260507220533 | 13 | 0 | 1.6 | 4.8 | 0.00 | 0.84 | 0.76 | 90 | 1010.4 |
| 20260507220041 | 13 | 0 | 0.0 | 3.2 | 0.00 | 0.84 | 0.76 | 91 | 1010.4 |
| 20260507215533 | 13 | 5 | 0.0 | 3.2 | 0.00 | 0.84 | 0.76 | 91 | 1010.4 |
| 20260507215036 | 13 | 255 | 0.0 | 3.2 | 0.00 | 0.84 | 0.76 | 92 | 1010.4 |
| 20260507214556 | 13 | 213 | 0.0 | 4.8 | 0.00 | 0.84 | 0.76 | 93 | 1010.4 |
| 20260507214033 | 12 | 5 | 0.0 | 6.4 | 0.00 | 0.84 | 0.76 | 93 | 1010.5 |
| 20260507213534 | 12 | 0 | 1.6 | 6.4 | 0.00 | 0.84 | 0.76 | 92 | 1010.5 |
| 20260507213039 | 12 | 12 | 0.0 | 4.8 | 0.00 | 0.84 | 0.76 | 94 | 1010.5 |
| 20260507212535 | 12 | 0 | 0.0 | 3.2 | 0.00 | 0.84 | 0.76 | 94 | 1010.6 |
| 20260507212034 | 12 | 305 | 0.0 | 6.4 | 0.00 | 0.84 | 0.76 | 94 | 1010.6 |
| 20260507211545 | 12 | 0 | 0.0 | 6.4 | 0.00 | 0.84 | 0.76 | 93 | 1010.6 |
| 20260507211032 | 12 | 355 | 1.6 | 6.4 | 0.00 | 0.84 | 0.76 | 93 | 1010.5 |
| 20260507210532 | 12 | 298 | 1.6 | 6.4 | 0.00 | 0.84 | 0.76 | 94 | 1010.5 |
| 20260507210048 | 12 | 0 | 0.0 | 4.8 | 0.00 | 0.84 | 0.76 | 94 | 1010.3 |
| 20260507205536 | 12 | 0 | 0.0 | 8.0 | 0.00 | 0.84 | 0.76 | 94 | 1010.4 |
| 20260507205034 | 12 | 292 | 1.6 | 8.0 | 0.00 | 0.84 | 0.76 | 94 | 1010.6 |
| 20260507204542 | 12 | 199 | 1.6 | 4.8 | 0.00 | 0.84 | 0.76 | 94 | 1010.6 |
| 20260507204034 | 12 | 0 | 0.0 | 6.4 | 0.00 | 0.84 | 0.76 | 94 | 1010.5 |
| 20260507203534 | 12 | 0 | 1.6 | 6.4 | 0.00 | 0.84 | 0.76 | 95 | 1010.6 |
| 20260507203042 | 12 | 0 | 0.0 | 6.4 | 0.00 | 0.84 | 0.76 | 96 | 1010.5 |
| 20260507202534 | 12 | 0 | 0.0 | 11.3 | 0.00 | 0.84 | 0.76 | 96 | 1010.3 |
| 20260507202036 | 11 | 52 | 3.2 | 11.3 | 0.00 | 0.84 | 0.76 | 95 | 1010.5 |
| 20260507201541 | 11 | 234 | 1.6 | 9.7 | 0.00 | 0.84 | 0.76 | 96 | 1010.7 |
| 20260507201034 | 11 | 11 | 1.6 | 6.4 | 0.00 | 0.84 | 0.76 | 97 | 1010.7 |
| 20260507200533 | 11 | 313 | 0.0 | 6.4 | 0.00 | 0.84 | 0.76 | 97 | 1010.9 |
| 20260507200054 | 11 | 294 | 0.0 | 6.4 | 0.00 | 0.84 | 0.76 | 97 | 1011.2 |
| 20260507195533 | 11 | 351 | 1.6 | 4.8 | 0.00 | 0.84 | 0.76 | 97 | 1011.1 |
| 20260507195034 | 11 | 0 | 0.0 | 4.8 | 0.00 | 0.84 | 0.76 | 97 | 1011.3 |
| 20260507194542 | 11 | 281 | 0.0 | 4.8 | 0.03 | 0.84 | 0.76 | 97 | 1011.4 |
| 20260507194032 | 11 | 348 | 0.0 | 6.4 | 0.08 | 0.84 | 0.76 | 96 | 1011.3 |
| 20260507193533 | 11 | 332 | 1.6 | 6.4 | 0.13 | 0.84 | 0.76 | 96 | 1011.3 |
| 20260507193046 | 11 | 0 | 1.6 | 4.8 | 0.13 | 0.84 | 0.76 | 96 | 1011.3 |
| 20260507192533 | 11 | 17 | 1.6 | 4.8 | 0.13 | 0.84 | 0.76 | 97 | 1011.4 |
| 20260507192032 | 11 | 0 | 0.0 | 3.2 | 0.13 | 0.84 | 0.76 | 97 | 1011.3 |
| 20260507191539 | 11 | 312 | 0.0 | 3.2 | 0.13 | 0.84 | 0.76 | 97 | 1011.3 |
| 20260507191037 | 11 | 0 | 0.0 | 4.8 | 0.15 | 0.84 | 0.76 | 97 | 1011.5 |
| 20260507190533 | 11 | 0 | 0.0 | 4.8 | 0.15 | 0.84 | 0.76 | 97 | 1011.6 |
| 20260507190050 | 11 | 0 | 0.0 | 3.2 | 0.15 | 0.84 | 0.76 | 97 | 1011.5 |
| 20260507185532 | 11 | 0 | 0.0 | 4.8 | 0.18 | 0.84 | 0.76 | 97 | 1011.7 |
| 20260507185035 | 11 | 0 | 0.0 | 4.8 | 0.18 | 0.84 | 0.76 | 96 | 1011.8 |
| 20260507184542 | 11 | 0 | 0.0 | 4.8 | 0.18 | 0.81 | 0.74 | 96 | 1011.7 |
| 20260507184033 | 11 | 0 | 1.6 | 4.8 | 0.10 | 0.74 | 0.66 | 97 | 1011.7 |
| 20260507183534 | 11 | 313 | 1.6 | 3.2 | 0.10 | 0.71 | 0.64 | 97 | 1011.7 |
| 20260507183042 | 11 | 0 | 0.0 | 3.2 | 0.13 | 0.71 | 0.64 | 97 | 1011.7 |
| 20260507182537 | 11 | 0 | 0.0 | 0.0 | 0.13 | 0.71 | 0.64 | 97 | 1011.6 |
| 20260507182036 | 11 | 0 | 0.0 | 1.6 | 0.13 | 0.71 | 0.64 | 97 | 1011.6 |
| 20260507181540 | 11 | 0 | 0.0 | 1.6 | 0.13 | 0.71 | 0.64 | 97 | 1011.8 |
| 20260507181033 | 11 | 0 | 0.0 | 0.0 | 0.13 | 0.69 | 0.61 | 97 | 1011.6 |
| 20260507180535 | 11 | 0 | 0.0 | 0.0 | 0.18 | 0.69 | 0.61 | 97 | 1011.9 |
| 20260507180050 | 11 | 0 | 0.0 | 3.2 | 0.20 | 0.69 | 0.61 | 97 | 1011.6 |
| 20260507175533 | 11 | 0 | 0.0 | 3.2 | 0.18 | 0.66 | 0.58 | 97 | 1011.8 |
| 20260507175033 | 11 | 0 | 0.0 | 4.8 | 0.20 | 0.66 | 0.58 | 97 | 1011.8 |
| 20260507174554 | 11 | 326 | 1.6 | 4.8 | 0.20 | 0.64 | 0.56 | 96 | 1011.8 |
| 20260507174036 | 11 | 0 | 0.0 | 6.4 | 0.20 | 0.64 | 0.56 | 97 | 1011.7 |
| 20260507173536 | 11 | 0 | 0.0 | 6.4 | 0.18 | 0.61 | 0.53 | 97 | 1011.5 |
| 20260507173042 | 11 | 0 | 0.0 | 6.4 | 0.15 | 0.58 | 0.51 | 96 | 1011.7 |
| 20260507172541 | 11 | 0 | 1.6 | 6.4 | 0.15 | 0.58 | 0.51 | 97 | 1011.6 |
| 20260507172036 | 11 | 0 | 0.0 | 4.8 | 0.15 | 0.58 | 0.51 | 97 | 1011.5 |
| 20260507171552 | 11 | 166 | 0.0 | 4.8 | 0.15 | 0.58 | 0.51 | 97 | 1011.6 |
| 20260507171036 | 11 | 0 | 0.0 | 3.2 | 0.13 | 0.56 | 0.48 | 97 | 1011.5 |
| 20260507170534 | 11 | 0 | 0.0 | 3.2 | 0.10 | 0.51 | 0.43 | 96 | 1011.7 |
| 20260507170045 | 11 | 247 | 0.0 | 3.2 | 0.08 | 0.48 | 0.41 | 96 | 1011.8 |
| 20260507165533 | 11 | 298 | 0.0 | 4.8 | 0.10 | 0.51 | 0.41 | 96 | 1011.7 |
| 20260507165032 | 11 | 0 | 0.0 | 4.8 | 0.08 | 0.48 | 0.38 | 96 | 1011.8 |
| 20260507164551 | 11 | 0 | 0.0 | 4.8 | 0.05 | 0.46 | 0.36 | 96 | 1011.8 |
| 20260507164036 | 11 | 0 | 0.0 | 3.2 | 0.05 | 0.46 | 0.36 | 96 | 1011.7 |
| 20260507163535 | 12 | 0 | 0.0 | 0.0 | 0.05 | 0.46 | 0.36 | 96 | 1011.7 |
| 20260507163047 | 12 | 0 | 0.0 | 4.8 | 0.05 | 0.46 | 0.36 | 96 | 1011.8 |
| 20260507162534 | 12 | 0 | 0.0 | 4.8 | 0.08 | 0.46 | 0.36 | 96 | 1011.8 |
| 20260507162033 | 12 | 313 | 0.0 | 4.8 | 0.08 | 0.46 | 0.36 | 96 | 1011.7 |
| 20260507161556 | 12 | 312 | 0.0 | 3.2 | 0.08 | 0.46 | 0.36 | 96 | 1011.7 |
| 20260507161036 | 12 | 0 | 0.0 | 3.2 | 0.08 | 0.46 | 0.36 | 96 | 1011.9 |
| 20260507160534 | 12 | 0 | 0.0 | 3.2 | 0.05 | 0.43 | 0.33 | 96 | 1011.8 |
| 20260507160046 | 12 | 0 | 0.0 | 0.0 | 0.05 | 0.43 | 0.33 | 96 | 1012.0 |
| 20260507155535 | 12 | 0 | 0.0 | 0.0 | 0.05 | 0.43 | 0.30 | 96 | 1012.0 |
| 20260507155034 | 12 | 0 | 0.0 | 3.2 | 0.05 | 0.43 | 0.30 | 96 | 1012.1 |
| 20260507154552 | 12 | 0 | 0.0 | 3.2 | 0.05 | 0.43 | 0.30 | 96 | 1012.0 |
| 20260507154036 | 12 | 0 | 0.0 | 11.3 | 0.08 | 0.43 | 0.30 | 96 | 1012.1 |
| 20260507153534 | 12 | 0 | 0.0 | 11.3 | 0.13 | 0.43 | 0.30 | 96 | 1012.1 |
| 20260507153102 | 12 | 178 | 1.6 | 11.3 | 0.13 | 0.43 | 0.30 | 96 | 1012.1 |
| 20260507152545 | 12 | 0 | 1.6 | 9.7 | 0.10 | 0.41 | 0.28 | 96 | 1012.0 |
| 20260507152035 | 12 | 0 | 3.2 | 9.7 | 0.10 | 0.41 | 0.28 | 96 | 1011.9 |
| 20260507151546 | 12 | 191 | 0.0 | 8.0 | 0.13 | 0.41 | 0.28 | 96 | 1012.1 |
| 20260507151034 | 12 | 139 | 0.0 | 6.4 | 0.13 | 0.41 | 0.28 | 96 | 1012.1 |
| 20260507150534 | 12 | 0 | 1.6 | 9.7 | 0.15 | 0.41 | 0.28 | 96 | 1012.0 |
| 20260507150049 | 12 | 171 | 1.6 | 9.7 | 0.15 | 0.41 | 0.28 | 96 | 1011.9 |
| 20260507145533 | 12 | 173 | 1.6 | 6.4 | 0.13 | 0.41 | 0.25 | 96 | 1011.9 |
| 20260507145032 | 12 | 0 | 0.0 | 9.7 | 0.13 | 0.41 | 0.25 | 95 | 1011.9 |
| 20260507144540 | 12 | 168 | 1.6 | 9.7 | 0.13 | 0.41 | 0.25 | 95 | 1011.9 |
| 20260507144034 | 13 | 107 | 1.6 | 9.7 | 0.10 | 0.38 | 0.23 | 94 | 1011.9 |
| 20260507143532 | 13 | 0 | 0.0 | 6.4 | 0.05 | 0.33 | 0.18 | 94 | 1011.8 |
| 20260507143041 | 13 | 214 | 1.6 | 6.4 | 0.05 | 0.33 | 0.18 | 95 | 1011.7 |
| 20260507142534 | 13 | 183 | 0.0 | 6.4 | 0.05 | 0.33 | 0.18 | 94 | 1011.6 |
| 20260507142034 | 13 | 0 | 1.6 | 6.4 | 0.05 | 0.33 | 0.18 | 94 | 1011.8 |
| 20260507141548 | 13 | 0 | 0.0 | 6.4 | 0.03 | 0.30 | 0.15 | 94 | 1011.6 |
| 20260507141030 | 13 | 187 | 0.0 | 8.0 | 0.03 | 0.30 | 0.15 | 93 | 1011.6 |
| 20260507140533 | 13 | 0 | 0.0 | 8.0 | 0.00 | 0.28 | 0.13 | 93 | 1011.6 |
| 20260507140037 | 14 | 185 | 3.2 | 8.0 | 0.00 | 0.28 | 0.13 | 92 | 1011.7 |
| 20260507135534 | 14 | 0 | 0.0 | 6.4 | 0.00 | 0.36 | 0.13 | 93 | 1012.0 |
| 20260507135036 | 14 | 266 | 0.0 | 4.8 | 0.00 | 0.36 | 0.13 | 93 | 1012.1 |
| 20260507134541 | 14 | 196 | 0.0 | 4.8 | 0.00 | 0.36 | 0.13 | 93 | 1012.0 |
| 20260507134032 | 14 | 0 | 0.0 | 4.8 | 0.00 | 0.36 | 0.13 | 93 | 1011.9 |
| 20260507133532 | 14 | 132 | 0.0 | 1.6 | 0.00 | 0.36 | 0.13 | 92 | 1011.8 |
| 20260507133041 | 14 | 0 | 0.0 | 1.6 | 0.00 | 0.36 | 0.13 | 91 | 1011.8 |
| 20260507132532 | 14 | 0 | 0.0 | 0.0 | 0.00 | 0.36 | 0.13 | 89 | 1011.9 |
| 20260507132033 | 14 | 0 | 0.0 | 0.0 | 0.00 | 0.36 | 0.13 | 92 | 1012.0 |
| 20260507131540 | 14 | 0 | 0.0 | 0.0 | 0.00 | 0.36 | 0.13 | 91 | 1011.9 |
| 20260507131031 | 13 | 0 | 0.0 | 0.0 | 0.00 | 0.36 | 0.13 | 90 | 1011.6 |
| 20260507130533 | 13 | 0 | 0.0 | 0.0 | 0.00 | 0.36 | 0.13 | 90 | 1011.6 |
| 20260507130055 | 13 | 0 | 0.0 | 0.0 | 0.00 | 0.36 | 0.13 | 91 | 1011.7 |
| 20260507125535 | 13 | 0 | 0.0 | 0.0 | 0.00 | 0.36 | 0.13 | 90 | 1011.8 |
| 20260507125032 | 13 | 0 | 0.0 | 1.6 | 0.00 | 0.36 | 0.13 | 90 | 1011.9 |
| 20260507124554 | 13 | 0 | 0.0 | 1.6 | 0.00 | 0.36 | 0.13 | 90 | 1011.9 |
| 20260507124033 | 13 | 0 | 0.0 | 1.6 | 0.00 | 0.36 | 0.13 | 91 | 1011.8 |
| 20260507123533 | 13 | 0 | 0.0 | 3.2 | 0.00 | 0.36 | 0.13 | 91 | 1011.8 |
| 20260507123057 | 13 | 0 | 0.0 | 3.2 | 0.00 | 0.36 | 0.13 | 92 | 1011.6 |
| 20260507122532 | 13 | 0 | 0.0 | 0.0 | 0.00 | 0.36 | 0.13 | 93 | 1011.5 |
| 20260507122032 | 13 | 0 | 0.0 | 0.0 | 0.00 | 0.36 | 0.13 | 93 | 1011.3 |
| 20260507121547 | 13 | 0 | 0.0 | 0.0 | 0.00 | 0.36 | 0.13 | 94 | 1011.3 |
| 20260507121033 | 13 | 0 | 0.0 | 0.0 | 0.00 | 0.36 | 0.13 | 94 | 1011.4 |
| 20260507120540 | 13 | 0 | 0.0 | 0.0 | 0.00 | 0.36 | 0.13 | 95 | 1011.5 |
| 20260507120040 | 13 | 0 | 0.0 | 0.0 | 0.00 | 0.36 | 0.13 | 96 | 1011.4 |
| 20260507115532 | 13 | 0 | 0.0 | 0.0 | 0.00 | 0.38 | 0.13 | 96 | 1011.4 |
| 20260507115034 | 13 | 0 | 0.0 | 0.0 | 0.00 | 0.38 | 0.13 | 97 | 1011.5 |
| 20260507114538 | 13 | 0 | 0.0 | 0.0 | 0.00 | 0.38 | 0.13 | 97 | 1011.4 |
| 20260507114032 | 13 | 0 | 0.0 | 0.0 | 0.00 | 0.38 | 0.13 | 97 | 1011.3 |
| 20260507113534 | 13 | 0 | 0.0 | 0.0 | 0.00 | 0.38 | 0.13 | 97 | 1011.4 |
| 20260507113043 | 13 | 0 | 0.0 | 0.0 | 0.00 | 0.38 | 0.13 | 97 | 1011.3 |
| 20260507112535 | 13 | 0 | 0.0 | 0.0 | 0.00 | 0.38 | 0.13 | 97 | 1011.2 |
| 20260507112033 | 13 | 0 | 0.0 | 0.0 | 0.00 | 0.38 | 0.13 | 96 | 1011.0 |
| 20260507111542 | 13 | 0 | 0.0 | 0.0 | 0.00 | 0.38 | 0.13 | 96 | 1011.0 |
| 20260507111032 | 13 | 0 | 0.0 | 0.0 | 0.00 | 0.38 | 0.13 | 96 | 1011.2 |
| 20260507110532 | 13 | 0 | 0.0 | 0.0 | 0.00 | 0.38 | 0.13 | 96 | 1011.3 |
| 20260507110041 | 13 | 0 | 0.0 | 0.0 | 0.00 | 0.38 | 0.13 | 96 | 1011.3 |
| 20260507105533 | 13 | 0 | 0.0 | 0.0 | 0.00 | 0.38 | 0.13 | 96 | 1011.2 |
| 20260507105032 | 13 | 0 | 0.0 | 0.0 | 0.00 | 0.38 | 0.13 | 95 | 1011.1 |
| 20260507104540 | 13 | 0 | 0.0 | 0.0 | 0.00 | 0.38 | 0.13 | 96 | 1011.0 |
| 20260507104032 | 13 | 0 | 0.0 | 0.0 | 0.00 | 0.38 | 0.13 | 96 | 1011.0 |
| 20260507103533 | 13 | 0 | 0.0 | 0.0 | 0.00 | 0.38 | 0.13 | 96 | 1010.8 |
| 20260507103044 | 13 | 0 | 0.0 | 0.0 | 0.00 | 0.38 | 0.13 | 96 | 1010.7 |
| 20260507102534 | 13 | 0 | 0.0 | 0.0 | 0.00 | 0.38 | 0.13 | 96 | 1010.8 |
| 20260507102032 | 13 | 0 | 0.0 | 1.6 | 0.00 | 0.38 | 0.13 | 96 | 1010.7 |
| 20260507101553 | 13 | 0 | 0.0 | 1.6 | 0.00 | 0.38 | 0.13 | 96 | 1010.7 |
| 20260507101031 | 13 | 0 | 0.0 | 1.6 | 0.00 | 0.38 | 0.13 | 96 | 1010.4 |
| 20260507100532 | 13 | 0 | 0.0 | 1.6 | 0.00 | 0.38 | 0.13 | 97 | 1010.5 |
| 20260507100054 | 13 | 0 | 0.0 | 0.0 | 0.00 | 0.38 | 0.13 | 97 | 1010.6 |
| 20260507095533 | 14 | 0 | 0.0 | 0.0 | 0.00 | 0.38 | 0.13 | 97 | 1010.8 |
| 20260507095034 | 14 | 0 | 0.0 | 0.0 | 0.00 | 0.38 | 0.13 | 97 | 1010.4 |
| 20260507094541 | 14 | 0 | 0.0 | 0.0 | 0.00 | 0.38 | 0.13 | 97 | 1010.3 |
| 20260507094032 | 14 | 0 | 0.0 | 0.0 | 0.00 | 0.38 | 0.13 | 97 | 1010.8 |
| 20260507093532 | 14 | 0 | 0.0 | 0.0 | 0.00 | 0.38 | 0.13 | 97 | 1011.0 |
| 20260507093040 | 14 | 0 | 0.0 | 0.0 | 0.00 | 0.38 | 0.13 | 97 | 1010.8 |
| 20260507092535 | 14 | 0 | 0.0 | 0.0 | 0.00 | 0.38 | 0.13 | 97 | 1010.7 |
| 20260507092036 | 15 | 0 | 0.0 | 0.0 | 0.00 | 0.38 | 0.13 | 97 | 1010.5 |
| 20260507091543 | 15 | 0 | 0.0 | 0.0 | 0.00 | 0.38 | 0.13 | 97 | 1010.0 |
| 20260507091032 | 15 | 0 | 0.0 | 0.0 | 0.00 | 0.38 | 0.13 | 98 | 1010.1 |
| 20260507090532 | 15 | 0 | 0.0 | 0.0 | 0.00 | 0.38 | 0.13 | 97 | 1010.2 |
| 20260507090047 | 15 | 0 | 0.0 | 0.0 | 0.00 | 0.38 | 0.13 | 97 | 1010.4 |
| 20260507085532 | 15 | 0 | 0.0 | 0.0 | 0.00 | 0.38 | 0.13 | 98 | 1010.4 |
| 20260507085032 | 15 | 0 | 0.0 | 0.0 | 0.00 | 0.38 | 0.13 | 98 | 1010.7 |
| 20260507084548 | 15 | 0 | 0.0 | 0.0 | 0.00 | 0.38 | 0.13 | 97 | 1010.9 |
| 20260507084032 | 15 | 0 | 0.0 | 0.0 | 0.00 | 0.38 | 0.13 | 97 | 1011.0 |
| 20260507083533 | 15 | 0 | 0.0 | 0.0 | 0.00 | 0.38 | 0.13 | 97 | 1010.6 |
| 20260507083058 | 15 | 0 | 0.0 | 0.0 | 0.00 | 0.38 | 0.13 | 97 | 1010.8 |
| 20260507082533 | 15 | 0 | 0.0 | 0.0 | 0.00 | 0.38 | 0.13 | 97 | 1010.7 |
| 20260507082032 | 15 | 0 | 0.0 | 0.0 | 0.00 | 0.38 | 0.13 | 97 | 1010.8 |
| 20260507081546 | 15 | 0 | 0.0 | 0.0 | 0.00 | 0.38 | 0.13 | 97 | 1010.8 |
| 20260507081033 | 15 | 0 | 0.0 | 0.0 | 0.00 | 0.38 | 0.13 | 97 | 1010.9 |
| 20260507080532 | 15 | 0 | 0.0 | 0.0 | 0.03 | 0.38 | 0.13 | 97 | 1010.9 |
| 20260507080039 | 15 | 0 | 0.0 | 0.0 | 0.03 | 0.38 | 0.13 | 97 | 1011.0 |
| 20260507075532 | 15 | 0 | 0.0 | 0.0 | 0.03 | 0.38 | 0.13 | 97 | 1011.1 |
| 20260507075032 | 16 | 0 | 0.0 | 0.0 | 0.03 | 0.38 | 0.13 | 98 | 1010.9 |
| 20260507074542 | 16 | 0 | 0.0 | 0.0 | 0.03 | 0.38 | 0.13 | 98 | 1010.9 |
| 20260507074032 | 16 | 0 | 0.0 | 0.0 | 0.03 | 0.38 | 0.13 | 98 | 1010.9 |
| 20260507073532 | 16 | 0 | 0.0 | 0.0 | 0.03 | 0.38 | 0.13 | 98 | 1011.1 |
| 20260507073053 | 16 | 0 | 0.0 | 0.0 | 0.03 | 0.38 | 0.13 | 98 | 1010.8 |
| 20260507072535 | 16 | 0 | 0.0 | 0.0 | 0.03 | 0.38 | 0.13 | 98 | 1010.9 |
| 20260507072036 | 16 | 0 | 0.0 | 0.0 | 0.03 | 0.38 | 0.13 | 98 | 1010.7 |
| 20260507071542 | 16 | 0 | 0.0 | 0.0 | 0.03 | 0.38 | 0.13 | 98 | 1010.4 |
| 20260507071032 | 16 | 0 | 0.0 | 0.0 | 0.03 | 0.38 | 0.13 | 98 | 1010.6 |
| 20260507070532 | 16 | 0 | 0.0 | 0.0 | 0.00 | 0.36 | 0.10 | 98 | 1010.3 |
| 20260507070042 | 16 | 0 | 0.0 | 0.0 | 0.00 | 0.36 | 0.10 | 98 | 1010.2 |
| 20260507065532 | 16 | 0 | 0.0 | 0.0 | 0.00 | 0.36 | 0.10 | 98 | 1010.8 |
| 20260507065033 | 16 | 0 | 0.0 | 0.0 | 0.00 | 0.36 | 0.10 | 98 | 1010.9 |
| 20260507064542 | 16 | 0 | 0.0 | 0.0 | 0.00 | 0.36 | 0.10 | 98 | 1010.5 |
| 20260507064032 | 16 | 0 | 0.0 | 0.0 | 0.00 | 0.36 | 0.10 | 98 | 1010.7 |
| 20260507063532 | 16 | 0 | 0.0 | 0.0 | 0.00 | 0.36 | 0.10 | 98 | 1010.4 |
| 20260507063046 | 16 | 0 | 0.0 | 0.0 | 0.03 | 0.36 | 0.10 | 98 | 1010.6 |
| 20260507062533 | 16 | 0 | 0.0 | 0.0 | 0.03 | 0.36 | 0.10 | 98 | 1010.4 |
| 20260507062032 | 16 | 0 | 0.0 | 0.0 | 0.03 | 0.36 | 0.10 | 98 | 1010.3 |
| 20260507061545 | 16 | 0 | 0.0 | 0.0 | 0.05 | 0.36 | 0.10 | 98 | 1010.2 |
| 20260507061033 | 16 | 0 | 0.0 | 0.0 | 0.05 | 0.36 | 0.10 | 97 | 1010.7 |
| 20260507060530 | 16 | 0 | 0.0 | 0.0 | 0.08 | 0.36 | 0.10 | 97 | 1010.7 |
| 20260507060042 | 16 | 0 | 0.0 | 0.0 | 0.08 | 0.36 | 0.10 | 97 | 1011.0 |
| 20260507055530 | 16 | 0 | 0.0 | 0.0 | 0.08 | 0.36 | 0.10 | 97 | 1011.0 |
| 20260507055033 | 16 | 0 | 0.0 | 0.0 | 0.10 | 0.36 | 0.10 | 97 | 1011.2 |
| 20260507054543 | 16 | 0 | 0.0 | 0.0 | 0.10 | 0.36 | 0.10 | 97 | 1011.2 |
| 20260507054036 | 16 | 0 | 0.0 | 4.8 | 0.10 | 0.36 | 0.10 | 97 | 1011.3 |
| 20260507053534 | 16 | 0 | 0.0 | 6.4 | 0.10 | 0.36 | 0.10 | 97 | 1011.3 |
| 20260507053041 | 16 | 0 | 1.6 | 6.4 | 0.08 | 0.33 | 0.08 | 97 | 1011.2 |
| 20260507052533 | 16 | 70 | 1.6 | 6.4 | 0.08 | 0.33 | 0.08 | 97 | 1011.2 |
| 20260507052033 | 16 | 0 | 0.0 | 0.0 | 0.05 | 0.30 | 0.05 | 97 | 1011.0 |
| 20260507051543 | 16 | 0 | 0.0 | 0.0 | 0.05 | 0.30 | 0.05 | 97 | 1011.2 |
| 20260507051033 | 16 | 0 | 0.0 | 0.0 | 0.03 | 0.28 | 0.03 | 97 | 1011.4 |
| 20260507050535 | 16 | 0 | 0.0 | 0.0 | 0.03 | 0.28 | 0.03 | 97 | 1011.1 |
| 20260507050040 | 16 | 0 | 0.0 | 0.0 | 0.03 | 0.28 | 0.03 | 97 | 1011.0 |
| 20260507045530 | 16 | 0 | 0.0 | 0.0 | 0.03 | 0.28 | 0.03 | 97 | 1011.0 |
| 20260507045030 | 16 | 0 | 0.0 | 0.0 | 0.00 | 0.25 | 0.00 | 97 | 1010.8 |
| 20260507044540 | 16 | 0 | 0.0 | 0.0 | 0.00 | 0.25 | 0.00 | 97 | 1010.9 |